Location: LDNL
(36.4545°S, 141.6685°E)
Time: 11:39:12
(UTC+10:00)

Explorer 7 - Pass Details

Date: 15 August 2022
Orbit: 482 x 668 km, 50.3° (Epoch: 26 September)

Event Time Altitude Azimuth Distance (km) Brightness Sun altitude
Rises 21:07:26 0° 234° (SW) 2,989 11.3 -38.1°
Enters shadow 21:10:13 - 216° (SW) 2,185 10.3 -38.7°
Reaches altitude 10° 21:10:49 10° 210° (SSW) 2,046 - -38.8°
Maximum altitude 21:13:30 15° 175° (S) 1,712 - -39.3°
Drops below altitude 10° 21:16:08 10° 140° (SE) 1,982 - -39.8°
Sets 21:19:18 0° 115° (ESE) 2,839 - -40.5°
